TimeEST,TemperatureF,Dew PointF,Humidity,Sea Level PressureIn,VisibilityMPH,Wind Direction,Wind SpeedMPH,Gust SpeedMPH,PrecipitationIn,Events,Conditions,WindDirDegrees,DateUTC
12:51 AM,48.9,39.9,71,30.42,8.0,Calm,Calm,-,N/A,,Overcast,0,2012-11-11 05:51:00
1:51 AM,46.9,39.9,77,30.42,6.0,Calm,Calm,-,N/A,,Haze,0,2012-11-11 06:51:00
2:51 AM,48.0,42.1,80,30.42,6.0,Calm,Calm,-,N/A,,Haze,0,2012-11-11 07:51:00
3:51 AM,44.6,39.2,81,30.43,7.0,North,3.5,-,N/A,,Scattered Clouds,360,2012-11-11 08:51:00
4:51 AM,43.0,39.9,89,30.46,7.0,Calm,Calm,-,N/A,,Mostly Cloudy,0,2012-11-11 09:51:00
5:51 AM,46.0,42.1,86,30.45,5.0,Calm,Calm,-,N/A,,Partly Cloudy,0,2012-11-11 10:51:00
6:51 AM,44.1,42.1,93,30.45,5.0,Calm,Calm,-,N/A,,Scattered Clouds,0,2012-11-11 11:51:00
7:51 AM,50.0,48.0,93,30.48,4.0,Calm,Calm,-,N/A,,Scattered Clouds,0,2012-11-11 12:51:00
8:51 AM,54.0,48.9,83,30.49,7.0,Calm,Calm,-,N/A,,Mostly Cloudy,0,2012-11-11 13:51:00
9:51 AM,55.9,48.9,77,30.49,7.0,Variable,4.6,-,N/A,,Scattered Clouds,0,2012-11-11 14:51:00
10:51 AM,57.9,48.0,70,30.48,8.0,Variable,3.5,-,N/A,,Scattered Clouds,0,2012-11-11 15:51:00
11:51 AM,61.0,46.9,60,30.46,10.0,SW,4.6,-,N/A,,Partly Cloudy,220,2012-11-11 16:51:00
12:51 PM,63.0,46.9,56,30.44,10.0,South,4.6,-,N/A,,Partly Cloudy,170,2012-11-11 17:51:00
1:51 PM,64.0,46.9,54,30.43,10.0,SSW,6.9,-,N/A,,Partly Cloudy,200,2012-11-11 18:51:00
2:51 PM,63.0,48.9,60,30.43,10.0,East,6.9,-,N/A,,Partly Cloudy,100,2012-11-11 19:51:00
3:51 PM,62.1,48.9,62,30.44,10.0,East,4.6,-,N/A,,Partly Cloudy,90,2012-11-11 20:51:00
4:51 PM,59.0,51.1,75,30.44,9.0,East,4.6,-,N/A,,Scattered Clouds,90,2012-11-11 21:51:00
5:51 PM,57.0,51.1,81,30.45,10.0,Calm,Calm,-,N/A,,Scattered Clouds,0,2012-11-11 22:51:00
6:51 PM,55.4,51.8,88,30.46,10.0,Calm,Calm,-,N/A,,Scattered Clouds,0,2012-11-11 23:51:00
7:51 PM,54.0,46.9,77,30.47,10.0,South,5.8,-,N/A,,Scattered Clouds,190,2012-11-12 00:51:00
8:51 PM,54.0,45.0,72,30.48,10.0,South,6.9,-,N/A,,Mostly Cloudy,190,2012-11-12 01:51:00
9:51 PM,53.6,44.6,72,30.48,10.0,South,3.5,-,N/A,,Overcast,170,2012-11-12 02:51:00
10:51 PM,53.1,46.0,77,30.48,10.0,South,3.5,-,N/A,,Overcast,180,2012-11-12 03:51:00
11:51 PM,51.8,46.4,82,30.47,10.0,Calm,Calm,-,N/A,,Overcast,0,2012-11-12 04:51:00